Weather History for Munising, MI

Change the Weather History Date:

Saturday, January 18, 2014

  Actual Average (KISQ) Record (KISQ)
Temperature  
Mean Temperature 17 °F -  
Max Temperature 26 °F 22 °F 42 °F (1951)
Min Temperature 8 °F 6 °F -19 °F (1984)
Degree Days  
Heating Degree Days 48    
Moisture  
Dew Point 10 °F    
Average Humidity 73    
Maximum Humidity 81    
Minimum Humidity 58    
Precipitation  
Precipitation 0.01 in - - ()
Sea Level Pressure  
Sea Level Pressure 29.81 in    
Wind  
Wind Speed 6 mph (SSW)    
Max Wind Speed 12 mph    
Max Gust Speed -    
Averages and records for this station are not official NWS values.
T = Trace of Precipitation, MM = Missing Value Source: NWS Daily Summary

Daily Weather History Graph

Daily Weather History Graph

Search for Another Location

Airport:

Trip Planner

Search our weather history database for the weather conditions in past years. The results will help you decide how hot, cold, wet, or windy it might be!

Date:

Astronomy

Jan. 18, 2014 Rise Set
Actual Time 8:23 AM EST 5:30 PM EST
Civil Twilight 7:50 AM EST 6:04 PM EST
Nautical Twilight 7:13 AM EST 6:41 PM EST
Astronomical Twilight 6:37 AM EST 7:17 PM EST
Moon 8:24 PM EST (1/18) 9:12 AM EST (1/18)
Length of Visible Light 10h 13m
Length of Day
9h 06m
Waning Gibbous, 94% of the Moon is Illuminated
Jan 18
Waning Gibbous
Jan 24
Last Quarter
Jan 30
New
Feb 6
First Quarter
Feb 14
Full

Hourly Weather History & Observations

Time (EST) Temp. Windchill Dew Point Humidity Pressure Visibility Wind Dir Wind Speed Gust Speed Precip Events Conditions
12:56 AM 19.9 °F 10.1 °F 14.0 °F 78% 29.84 in - NW 8.1 mph - 0.01 in   Unknown
1:56 AM 19.9 °F 11.1 °F 14.0 °F 78% 29.84 in - West 6.9 mph - N/A   Unknown
2:56 AM 19.0 °F 13.9 °F 12.9 °F 77% 29.84 in - West 3.5 mph - N/A   Unknown
3:56 AM 18.0 °F 11.1 °F 10.9 °F 74% 29.85 in - Variable 4.6 mph - N/A   Unknown
4:56 AM 17.1 °F 11.7 °F 10.0 °F 74% 29.84 in - South 3.5 mph - N/A   Unknown
5:56 AM 15.1 °F 7.7 °F 9.0 °F 77% 29.84 in - South 4.6 mph - N/A   Unknown
6:56 AM 10.9 °F 0.2 °F 6.1 °F 81% 29.84 in - South 6.9 mph - N/A   Unknown
7:56 AM 8.1 °F -4.3 °F 3.0 °F 80% 29.85 in - South 8.1 mph - N/A   Unknown
8:56 AM 10.0 °F -0.9 °F 5.0 °F 80% 29.86 in - South 6.9 mph - N/A   Unknown
9:56 AM 12.9 °F 3.8 °F 7.0 °F 77% 29.87 in - South 5.8 mph - N/A   Unknown
10:56 AM 17.1 °F 7.6 °F 10.9 °F 77% 29.88 in - South 6.9 mph - N/A   Unknown
11:56 AM 23.0 °F 18.4 °F 14.0 °F 68% 29.86 in - WNW 3.5 mph - N/A   Unknown
12:56 PM 24.1 °F - 14.0 °F 65% 29.85 in - Calm Calm - N/A   Unknown
1:56 PM 26.1 °F 21.9 °F 12.9 °F 58% 29.83 in - NE 3.5 mph - N/A   Unknown
2:56 PM 23.0 °F - 15.1 °F 72% 29.83 in - Calm Calm - N/A   Unknown
3:56 PM 24.1 °F - 14.0 °F 65% 29.83 in - Calm Calm - N/A   Unknown
4:56 PM 23.0 °F 17.0 °F 10.9 °F 60% 29.82 in - South 4.6 mph - N/A   Unknown
5:56 PM 18.0 °F 12.7 °F 10.0 °F 71% 29.81 in - South 3.5 mph - N/A   Unknown
6:56 PM 15.1 °F 7.7 °F 9.0 °F 77% 29.81 in - SSW 4.6 mph - N/A   Unknown
7:56 PM 12.9 °F 5.2 °F 7.0 °F 77% 29.79 in - SSW 4.6 mph - N/A   Unknown
8:56 PM 15.1 °F 6.4 °F 8.1 °F 74% 29.75 in - SW 5.8 mph - N/A   Unknown
9:56 PM 15.1 °F 4.2 °F 8.1 °F 74% 29.71 in - SSW 8.1 mph - N/A   Unknown
10:56 PM 15.1 °F 3.3 °F 7.0 °F 70% 29.66 in - SSW 9.2 mph - N/A   Unknown
11:56 PM 16.0 °F 2.9 °F 7.0 °F 68% 29.60 in - SSW 11.5 mph - N/A   Unknown